Flight Track Log - Related Links

Times and Time Zones

All times are in EST time to prevent confusion due to time zone crossing. See the SKW5345 flight status page for this flight to view local times or setup timezone preferences in your user account.

Time Position Orientation Groundspeed Altitude Reporting Facility
EST Latitude Longitude Course Direction KTS MPH feet Rate Location/Type
04:21PM 41.0708 -85.3100 329° Northwest 254 292 7,200  Level Chicago Center
04:23PM 41.1147 -85.3889 306° West 261 300 9,700 2,419 Climbing Chicago Center
04:24PM 41.1511 -85.4775 299° West 273 314 12,200 2,371 Climbing Chicago Center
04:25PM 41.2500 -85.7079 270° West  Level FlightAware Approximate
04:25PM 41.1731 -85.5742 287° West 275 316 14,600  Level Chicago Center
04:26PM 41.2588 -85.8183 288° West  Level FlightAware Approximate
04:26PM 41.1978 -85.6792 287° West 292 336 16,100  Level Chicago Center
04:27PM 41.2319 -85.8192 288° West 325 374 16,100  Level Chicago Center
04:28PM 41.2617 -85.9439 288° West 347 399 16,100  Level Chicago Center
04:29PM 41.2856 -86.0672 284° West 348 400 16,100  Level Chicago Center
04:30PM 41.3014 -86.1900 280° West 339 390 16,100  Level Chicago Center
04:31PM 41.3422 -86.3061 295° West 352 405 16,100  Level Chicago Center
04:32PM 41.3881 -86.4194 298° West 347 399 16,100  Level Chicago Center
04:33PM 41.4439 -86.5567 299° West 349 402 16,100 -242 Level Chicago Center
04:34PM 41.4964 -86.6603 304° West 347 399 15,600 -1,210 Descending Chicago Center
04:35PM 41.5844 -86.7347 328° Northwest 372 428 13,600 -1,694 Descending Chicago Center
04:36PM 41.6672 -86.7944 332° Northwest 352 405 12,100 -1,210 Descending Chicago Center
04:37PM 41.7672 -86.8094 354° North 359 413 11,100 -484 Descending Chicago Center
04:38PM 41.8567 -86.8464 343° North 346 398 11,100  Level Chicago Center
04:39PM 41.8925 -86.9506 295° West 314 361 11,100 -97 Level Chicago Center
04:40PM 41.9289 -87.0708 292° West 295 339 10,900 -816 Descending Chicago Center
04:41PM 41.9575 -87.1519 295° West 253 291 9,400 -1,440 Descending Chicago Center
04:42PM 41.9814 -87.2300 292° West 233 268 7,900 -1,161 Descending Chicago Center
04:43PM 41.9808 -87.3131 270° West 227 261 7,000 -435 Descending Chicago Center
04:44PM 41.9814 -87.4039 271° West 218 251 7,000 -97 Level Chicago Center
04:45PM 41.9822 -87.4831 271° West 213 245 6,800 -629 Descending Chicago Center
04:46PM 41.9825 -87.5600 270° West 208 239 5,700 -1,103 Descending Chicago Center
04:48PM 41.9833 -87.6333 271° West 164 189 4,300 -940 Descending Chicago TRACON
04:49PM 41.9833 -87.6833 270° West 130 150 3,600 -650 Descending Chicago TRACON
04:50PM 41.9833 -87.7333 270° West 124 143 3,000 -650 Descending Chicago TRACON
04:51PM 41.9833 -87.7833 270° West 138 159 2,300 -744 Descending Chicago TRACON
04:52PM 41.9833 -87.8333 270° West 125 144 1,500 -787 Descending Chicago TRACON
04:54PM 41.9667 -87.9000 270° West  Level FlightAware Approximate

Login

Don't have an account? Register now (free) for customized features, flight alerts, and more!